Location: Bacea
(45.9500°N, 22.6667°E)
Time: 01:21:40
(UTC+00:00)

Iridium 4 Rocket - Pass Details

Date: 16 October 2021
Orbit: 586 x 903 km, 86.9° (Epoch: 02 December)

Event Time Altitude Azimuth Distance (km) Brightness Sun altitude
Rises 17:45:43 0° 352° (N) 2,876 6.7 -22.3°
Reaches altitude 10° 17:47:54 10° 348° (NNW) 1,995 5.9 -22.7°
Maximum altitude 17:52:09 53° 272° (W) 799 3.9 -23.4°
Drops below altitude 10° 17:56:43 10° 196° (SSW) 2,136 5.8 -24.2°
Sets 17:59:07 0° 191° (SSW) 3,101 6.6 -24.6°
